Retour au catalogue

BREEZE-M DEB

TANK

ActifHEO
NORAD 29649·DEBRIS·🇷🇺 Russia

Lancé Dec 11, 2006 depuis Baikonur Cosmodrome

Loading…

Prochains Passages (prochaines 24 heures)

TLE

FraisSource: Space-Track

Époque: Sep 14, 2026, 10:54 UTC

1 29649U 06056B   26257.45435585  .00002671  00000-0  65354-3 0  9990
2 29649  49.5038 227.7288 5232631 154.7971 244.3591  5.21698049359158

Suivez BREEZE-M DEB en temps réel avec AllMySat

Download on the App Store